This is the latest recevied weather packets stored in our database for station/object IZ1UQG-2. If no packets are shown the sender has not sent any weather packets the latest 10 day(s).
| Time | Temp. | Humidity | Pressure | Rain* | Wind** | Luminosity | Snow |
|---|---|---|---|---|---|---|---|
| 1778047324 | 11.67° C | 93% | 1006.6 hPa | 5.08 mm | - | 0 W/m² | - |
| 1778047024 | 11.67° C | 93% | 1006.5 hPa | 3.81 mm | - | 5 W/m² | - |
| 1778046904 | 11.67° C | 93% | 1006.4 hPa | 3.3 mm | - | 7 W/m² | - |
| 1778046844 | 11.67° C | 93% | 1006.5 hPa | 3.3 mm | - | 7 W/m² | - |
| 1778046064 | 11.67° C | 93% | 1006.6 hPa | 3.3 mm | - | 14 W/m² | - |
| 1778045884 | 11.67° C | 93% | 1006.6 hPa | 3.3 mm | - | 16 W/m² | - |
| 1778045824 | 11.67° C | 93% | 1006.7 hPa | 3.3 mm | - | 16 W/m² | - |
| 1778045405 | 11.67° C | 93% | 1006.8 hPa | 3.05 mm | - | 12 W/m² | - |
| 1778044924 | 11.67° C | 93% | 1006.8 hPa | 2.29 mm | - | 9 W/m² | - |
| 1778043425 | 11.67° C | 92% | 1007.1 hPa | 0.51 mm | - | 0 W/m² | - |
| 1778043364 | 11.67° C | 92% | 1007.1 hPa | 0.51 mm | - | 0 W/m² | - |
| 1778043244 | 11.67° C | 92% | 1007.1 hPa | 0.51 mm | - | 0 W/m² | - |
| 1778043004 | 11.67° C | 92% | 1007.1 hPa | 0.51 mm | - | 0 W/m² | - |
| 1778042705 | 11.67° C | 92% | 1007.2 hPa | 0.51 mm | - | 0 W/m² | - |
| 1778042404 | 11.67° C | 92% | 1007.3 hPa | 0 mm | - | 0 W/m² | - |
| 1778041624 | 11.67° C | 92% | 1007.4 hPa | 0 mm | - | 0 W/m² | - |
| 1778041384 | 11.67° C | 92% | 1007.4 hPa | 0 mm | - | 0 W/m² | - |
| 1778041144 | 11.67° C | 92% | 1007.5 hPa | 0 mm | - | 0 W/m² | - |
| 1778040964 | 11.67° C | 92% | 1007.6 hPa | 0 mm | - | 0 W/m² | - |
| 1778040424 | 11.67° C | 92% | 1007.6 hPa | 0 mm | - | 0 W/m² | - |
| 1778040004 | 11.67° C | 92% | 1007.6 hPa | 0 mm | - | 0 W/m² | - |
| 1778039945 | 11.67° C | 92% | 1007.6 hPa | 0 mm | - | 0 W/m² | - |
| 1778039884 | 11.67° C | 92% | 1007.7 hPa | 0 mm | - | 0 W/m² | - |
| 1778039764 | 11.67° C | 92% | 1007.7 hPa | 0 mm | - | 0 W/m² | - |
| 1778039404 | 11.67° C | 92% | 1007.7 hPa | 0 mm | - | 0 W/m² | - |
* Rain latest hour (hover to see other rain measurements)
** Current wind speed in m/s (hover to see current wind gust speed)